This is the latest recevied weather packets stored in our database for station/object W6SNO-1. If no packets are shown the sender has not sent any weather packets the latest 10 day(s).
| Time | Temp. | Humidity | Pressure | Rain* | Wind** | Luminosity | Snow |
|---|---|---|---|---|---|---|---|
| 1787721246 | 18.33° C | 79% | 1017.2 hPa | 0 mm | - | 0 W/m² | - |
| 1787720942 | 18.33° C | 78% | 1017.1 hPa | 0 mm | - | 0 W/m² | - |
| 1787720636 | 18.33° C | 78% | 1017.3 hPa | 0 mm | - | 0 W/m² | - |
| 1787720336 | 18.33° C | 78% | 1017.1 hPa | 0 mm | - | 0 W/m² | - |
| 1787720035 | 18.89° C | 78% | 1017 hPa | 0 mm | - | 0 W/m² | - |
| 1787719731 | 18.89° C | 78% | 1017 hPa | 0 mm | - | 0 W/m² | - |
| 1787719430 | 18.89° C | 78% | 1017.1 hPa | 0 mm | - | 0 W/m² | - |
| 1787718211 | 19.44° C | 76% | 1017.1 hPa | 0 mm | - | 0 W/m² | - |
| 1787717908 | 19.44° C | 76% | 1016.9 hPa | 0 mm | - | 0 W/m² | - |
| 1787717604 | 19.44° C | 75% | 1017 hPa | 0 mm | - | 0 W/m² | - |
| 1787717299 | 19.44° C | 75% | 1016.7 hPa | 0 mm | - | 0 W/m² | - |
| 1787716999 | 20° C | 75% | 1016.6 hPa | 0 mm | - | 0 W/m² | - |
| 1787716387 | 20.56° C | 70% | 1016.7 hPa | 0 mm | - | 0 W/m² | - |
| 1787716081 | 20.56° C | 69% | 1016.6 hPa | 0 mm | - | 0 W/m² | - |
| 1787715777 | 20.56° C | 66% | 1016.4 hPa | 0 mm | - | 0 W/m² | - |
| 1787715476 | 20.56° C | 65% | 1016.2 hPa | 0 mm | - | 0 W/m² | - |
| 1787715172 | 21.11° C | 63% | 1016.4 hPa | 0 mm | - | 0 W/m² | - |
| 1787713957 | 21.67° C | 59% | 1016.2 hPa | 0 mm | - | 0 W/m² | - |
| 1787713657 | 21.67° C | 59% | 1016.2 hPa | 0 mm | - | 0 W/m² | - |
| 1787713351 | 21.67° C | 58% | 1016.3 hPa | 0 mm | - | 0 W/m² | - |
| 1787713050 | 21.67° C | 58% | 1016.3 hPa | 0 mm | - | 1 W/m² | - |
| 1787712744 | 21.67° C | 58% | 1016.3 hPa | 0 mm | - | 2 W/m² | - |
| 1787712440 | 21.67° C | 59% | 1016.3 hPa | 0 mm | - | 2 W/m² | - |
| 1787712134 | 22.22° C | 59% | 1016.1 hPa | 0 mm | - | 6 W/m² | - |
| 1787711834 | 22.22° C | 59% | 1016 hPa | 0 mm | - | 9 W/m² | - |
* Rain latest hour (hover to see other rain measurements)
** Current wind speed in m/s (hover to see current wind gust speed)